sat.trackr.live / text

‹ back to catalog

STARLINK-38008

NORAD 69724 · 2026-147W

PAYLOAD ACTIVE UNKNOWN

§ Identity

Operator
Country
US
Launch date
2026-06-28
Launch site
AFWTR
Launch vehicle
Mass (kg)
RCS (m²)

Purposes: comms

External: N2YO · Heavens-Above · Gunter

§ Orbital elements

Epoch: 2026-09-20T02:02:31.180704Z

Period
93.90 min
Inclination
97.2851°
Eccentricity
0.0001137
Mean motion
15.33470232 rev/d
Perigee alt
464.7 km
Apogee alt
466.2 km
Semi-major
6,843.6 km
B*
5.5463e-4
RAAN
299.5061°
Arg perigee
102.7751°
Mean anomaly
257.3619°
Rev number
1,417

§ Raw data

STARLINK-380081 69724U 26147W   26263.08508311  .00017887  00000+0  55463-3 0  99992 69724  97.2851 299.5061 0001137 102.7751 257.3619 15.33470232 14175

JSON: /api/v1/satellites/69724 · /tle

For live sub-satellite position, see the globe view (requires WebGL).

§ Visibility from observer

Set your observer location to see the next 7 days of passes ≥ 10°. The values pass through the URL so the page stays shareable.

No JS? Fill the form by hand. The geolocation button needs JavaScript.